Flag for Brazil Weather past 2 weeks in Joinville, Santa Catarina, Brazil

66 °F

Light rain. Cloudy.

Feels Like: 66 °F
Forecast: 66 / 78 °F
Wind: 5 mph from Northeast

Location: Curitiba Aeroporto

Current Time: Nov 25, 2015 at 11:25:23 AM

Latest Report: Nov 25, 2015 at 11:00 AM

Visibility: 3 mi

Pressure: 30.01 "Hg

Humidity: 88%

Dew point: 63 °F

Location of JoinvilleLocation

Historic Weather in Joinville — Graph


Joinville temperature yesterday

Maximum temperature yesterday: 70 °F (at 3:00 PM)
Minimum temperature yesterday: 59 °F (at 4:00 AM)
Average temperature yesterday: 63 °F

Past Weeks' High & Low Weather Summary

High90 °F (Nov 11, 2:00 PM)100% (Nov 10, 10:00 PM)30.21 "Hg (Nov 10, 10:00 PM)
Low39 °F (Nov 11, 5:00 PM)31% (Nov 11, 2:00 PM)29.68 "Hg (Nov 20, 4:00 AM)
Average67 °F85%29.96 "Hg
* Reported Nov 10 10:00 AM — Nov 25 10:00 AM, Joinville, Weather by CustomWeather, © 2015

Note: Actual official high and low records may vary slightly from our data, if they occured in-between our weather recording intervals... More about our weather records


Joinville weather history for previous 24 hours

Time TempWeatherWind HumidityBarometerVisibility
10:00 AM
Wed, Nov 25
64 °FLight rain. Mostly cloudy.8 mph94%30.01 "Hg3 mi
9:00 AM64 °FLight rain. Fog.6 mph94%29.98 "Hg1 mi
8:00 AM61 °FLight rain. Fog.5 mph100%29.98 "Hg1 mi
7:00 AM61 °FLight rain. Fog.5 mph94%29.98 "Hg2 mi
6:00 AM61 °FLight rain. Mostly cloudy.6 mph94%29.95 "Hg4 mi
5:00 AM61 °FDrizzle. Fog.6 mph94%29.92 "Hg3 mi
4:00 AM61 °FLight rain. Low clouds.6 mph94%29.92 "Hg5 mi
3:00 AM61 °FLight rain. Low clouds.5 mph94%29.92 "HgN/A
2:00 AM61 °FLight rain. Low clouds.5 mph94%29.89 "Hg5 mi
1:00 AM61 °FLight rain. Mostly cloudy.7 mph94%29.95 "Hg5 mi
12:00 AM61 °FLight rain. Partly cloudy.8 mph94%29.95 "Hg3 mi
11:00 PM
Tue, Nov 24
61 °FPartly cloudy.5 mph100%29.95 "Hg5 mi
10:00 PM61 °FLight rain. Partly cloudy.8 mph100%29.92 "Hg4 mi
9:00 PM63 °FLight rain. Fog.8 mph94%N/A3 mi
8:00 PM63 °FLight rain. Fog.6 mph94%N/A2 mi
7:00 PM64 °FDrizzle. Fog.9 mph94%N/A2 mi
6:00 PM64 °FDrizzle. Fog.7 mph94%29.83 "Hg3 mi
5:00 PM66 °FOvercast.7 mph88%29.83 "HgN/A
4:00 PM70 °FOvercast.5 mph78%29.83 "HgN/A
3:00 PM70 °FOvercast.9 mph83%29.83 "HgN/A
2:00 PM68 °FOvercast.10 mph83%29.86 "HgN/A
1:00 PM68 °FOvercast.7 mph83%29.89 "HgN/A
12:00 PM66 °FLow clouds.5 mph83%29.89 "HgN/A
11:00 AM64 °FLow clouds.3 mph88%29.92 "HgN/A
Weather by CustomWeather, © 2015

See weather overviewHow to use our weather pages